Back to catalog

PE2_FLT1

TYVAK-0261

AliveScienceSSO
NORAD 59105·PAYLOAD·🇺🇸 United States

Launched Mar 4, 2024 from Vandenberg Space Force Base

Loading…

Next Passes (next 24 hours)

TLE

FreshSource: Space-Track

Epoch: Sep 14, 2026, 14:21 UTC

1 59105U 24043H   26257.59834955  .00001826  00000-0  16150-3 0  9996
2 59105  97.8507  28.5602 0007605  97.4115 262.7971 14.97565086138036

Track PE2_FLT1 in real time with AllMySat

Download on the App Store